Time,TemperatureF,DewpointF,PressureIn,WindDirection,WindDirectionDegrees,WindSpeedMPH,WindSpeedGustMPH,Humidity,HourlyPrecipIn,Conditions,Clouds,dailyrainin,SoftwareType,DateUTC
2013-08-13 00:01:00,83.2,79.6,29.94,SW,236,17.0,17.0,89,0.00,,,0.00,WUHU216DAVISVP2,2013-08-13 04:01:00,
2013-08-13 00:06:00,83.2,79.3,29.94,WSW,251,13.0,18.0,88,0.00,,,0.00,WUHU216DAVISVP2,2013-08-13 04:06:00,
2013-08-13 00:11:00,83.2,79.3,29.94,WSW,245,7.0,18.0,88,0.00,,,0.00,WUHU216DAVISVP2,2013-08-13 04:11:00,
2013-08-13 00:16:00,83.2,79.3,29.94,West,274,9.0,19.0,88,0.00,,,0.00,WUHU216DAVISVP2,2013-08-13 04:16:00,
2013-08-13 00:21:00,83.1,79.2,29.93,West,259,16.0,19.0,88,0.00,,,0.00,WUHU216DAVISVP2,2013-08-13 04:21:00,
2013-08-13 00:26:00,83.1,79.5,29.93,WSW,243,15.0,19.0,89,0.00,,,0.00,WUHU216DAVISVP2,2013-08-13 04:26:00,
2013-08-13 00:31:00,83.1,79.5,29.93,WSW,243,11.0,19.0,89,0.00,,,0.00,WUHU216DAVISVP2,2013-08-13 04:31:00,
2013-08-13 00:36:00,83.0,79.4,29.93,West,259,7.0,17.0,89,0.00,,,0.00,WUHU216DAVISVP2,2013-08-13 04:36:00,
2013-08-13 00:41:00,83.0,79.8,29.93,WSW,257,10.0,16.0,90,0.00,,,0.00,WUHU216DAVISVP2,2013-08-13 04:41:00,
2013-08-13 00:46:00,83.0,79.8,29.94,WSW,243,11.0,16.0,90,0.00,,,0.00,WUHU216DAVISVP2,2013-08-13 04:46:00,
2013-08-13 00:51:00,83.0,79.8,29.94,West,274,8.0,16.0,90,0.00,,,0.00,WUHU216DAVISVP2,2013-08-13 04:51:00,
2013-08-13 00:56:00,83.0,79.8,29.94,WSW,250,7.0,16.0,90,0.00,,,0.00,WUHU216DAVISVP2,2013-08-13 04:56:00,
2013-08-13 01:01:00,83.0,79.8,29.94,West,261,12.0,15.0,90,0.00,,,0.00,WUHU216DAVISVP2,2013-08-13 05:01:00,
2013-08-13 01:06:00,82.9,79.7,29.94,WSW,257,8.0,17.0,90,0.00,,,0.00,WUHU216DAVISVP2,2013-08-13 05:06:00,
2013-08-13 01:11:00,82.9,79.7,29.94,WNW,284,14.0,17.0,90,0.00,,,0.00,WUHU216DAVISVP2,2013-08-13 05:11:00,
2013-08-13 01:16:00,82.9,79.7,29.94,SW,233,7.0,17.0,90,0.00,,,0.00,WUHU216DAVISVP2,2013-08-13 05:16:00,
2013-08-13 01:21:00,82.9,79.7,29.95,WSW,250,11.0,17.0,90,0.00,,,0.00,WUHU216DAVISVP2,2013-08-13 05:21:00,
2013-08-13 01:26:00,82.9,79.7,29.95,WSW,250,12.0,17.0,90,0.00,,,0.00,WUHU216DAVISVP2,2013-08-13 05:26:00,
2013-08-13 01:31:00,82.8,79.6,29.94,West,273,6.0,16.0,90,0.00,,,0.00,WUHU216DAVISVP2,2013-08-13 05:31:00,
2013-08-13 01:36:00,82.8,79.6,29.94,WSW,257,13.0,17.0,90,0.00,,,0.00,WUHU216DAVISVP2,2013-08-13 05:36:00,
2013-08-13 01:41:00,82.8,79.2,29.94,West,267,11.0,17.0,89,0.00,,,0.00,WUHU216DAVISVP2,2013-08-13 05:41:00,
2013-08-13 01:46:00,82.8,79.2,29.94,WSW,248,11.0,19.0,89,0.00,,,0.00,WUHU216DAVISVP2,2013-08-13 05:46:00,
2013-08-13 01:51:00,82.8,79.2,29.93,WSW,238,16.0,19.0,89,0.00,,,0.00,WUHU216DAVISVP2,2013-08-13 05:51:00,
2013-08-13 01:56:00,82.8,79.2,29.93,WSW,237,9.0,19.0,89,0.00,,,0.00,WUHU216DAVISVP2,2013-08-13 05:56:00,
2013-08-13 02:01:00,82.8,78.9,29.93,SW,233,9.0,18.0,88,0.00,,,0.00,WUHU216DAVISVP2,2013-08-13 06:01:00,
2013-08-13 02:06:00,82.9,79.0,29.93,WSW,248,13.0,18.0,88,0.00,,,0.00,WUHU216DAVISVP2,2013-08-13 06:06:00,
2013-08-13 02:11:00,82.9,79.0,29.93,WSW,243,12.0,18.0,88,0.00,,,0.00,WUHU216DAVISVP2,2013-08-13 06:11:00,
2013-08-13 02:16:00,82.8,79.2,29.93,WSW,257,10.0,18.0,89,0.00,,,0.00,WUHU216DAVISVP2,2013-08-13 06:16:00,
2013-08-13 02:21:00,82.8,79.2,29.92,WSW,240,14.0,18.0,89,0.00,,,0.00,WUHU216DAVISVP2,2013-08-13 06:21:00,
2013-08-13 02:26:00,82.8,78.9,29.92,WSW,250,12.0,18.0,88,0.00,,,0.00,WUHU216DAVISVP2,2013-08-13 06:26:00,
2013-08-13 02:31:00,82.8,78.9,29.92,West,269,8.0,18.0,88,0.00,,,0.00,WUHU216DAVISVP2,2013-08-13 06:31:00,
2013-08-13 02:36:00,82.8,78.9,29.92,WSW,253,11.0,18.0,88,0.00,,,0.00,WUHU216DAVISVP2,2013-08-13 06:36:00,
2013-08-13 02:41:00,82.8,78.9,29.92,SW,233,8.0,18.0,88,0.00,,,0.00,WUHU216DAVISVP2,2013-08-13 06:41:00,
2013-08-13 02:46:00,82.8,78.9,29.92,WSW,254,11.0,19.0,88,0.00,,,0.00,WUHU216DAVISVP2,2013-08-13 06:46:00,
2013-08-13 02:51:00,82.8,78.9,29.92,SW,235,13.0,19.0,88,0.00,,,0.00,WUHU216DAVISVP2,2013-08-13 06:51:00,
2013-08-13 02:56:00,82.9,79.0,29.92,WSW,245,17.0,19.0,88,0.00,,,0.00,WUHU216DAVISVP2,2013-08-13 06:56:00,
2013-08-13 03:01:00,82.8,78.9,29.92,WSW,242,12.0,19.0,88,0.00,,,0.00,WUHU216DAVISVP2,2013-08-13 07:01:00,
2013-08-13 03:06:00,82.9,79.0,29.92,WSW,256,15.0,19.0,88,0.00,,,0.00,WUHU216DAVISVP2,2013-08-13 07:06:00,
2013-08-13 03:11:00,82.9,79.0,29.92,WSW,240,14.0,21.0,88,0.00,,,0.00,WUHU216DAVISVP2,2013-08-13 07:11:00,
2013-08-13 03:16:00,82.9,79.0,29.92,WSW,243,11.0,21.0,88,0.00,,,0.00,WUHU216DAVISVP2,2013-08-13 07:16:00,
2013-08-13 03:21:00,82.9,79.3,29.92,WSW,247,14.0,21.0,89,0.00,,,0.00,WUHU216DAVISVP2,2013-08-13 07:21:00,
2013-08-13 03:26:00,82.8,79.2,29.92,West,260,15.0,21.0,89,0.00,,,0.00,WUHU216DAVISVP2,2013-08-13 07:26:00,
2013-08-13 03:31:00,82.8,79.2,29.91,WSW,248,9.0,20.0,89,0.00,,,0.00,WUHU216DAVISVP2,2013-08-13 07:31:00,
2013-08-13 03:36:00,82.8,79.6,29.91,West,266,20.0,22.0,90,0.00,,,0.00,WUHU216DAVISVP2,2013-08-13 07:36:00,
2013-08-13 03:41:00,82.7,79.5,29.91,West,272,14.0,22.0,90,0.00,,,0.00,WUHU216DAVISVP2,2013-08-13 07:41:00,
2013-08-13 03:46:00,82.7,79.5,29.91,West,262,10.0,22.0,90,0.00,,,0.00,WUHU216DAVISVP2,2013-08-13 07:46:00,
2013-08-13 03:51:00,82.6,79.4,29.91,WSW,257,11.0,22.0,90,0.00,,,0.00,WUHU216DAVISVP2,2013-08-13 07:51:00,
2013-08-13 03:56:00,82.6,79.4,29.90,West,259,11.0,22.0,90,0.00,,,0.00,WUHU216DAVISVP2,2013-08-13 07:56:00,
2013-08-13 04:01:00,82.6,79.4,29.90,West,270,7.0,22.0,90,0.00,,,0.00,WUHU216DAVISVP2,2013-08-13 08:01:00,
2013-08-13 04:06:00,82.6,79.4,29.90,WSW,256,10.0,19.0,90,0.00,,,0.00,WUHU216DAVISVP2,2013-08-13 08:06:00,
2013-08-13 04:11:00,82.6,79.7,29.90,West,268,12.0,19.0,91,0.00,,,0.00,WUHU216DAVISVP2,2013-08-13 08:11:00,
2013-08-13 04:16:00,82.5,79.6,29.90,WSW,257,14.0,19.0,91,0.00,,,0.00,WUHU216DAVISVP2,2013-08-13 08:16:00,
2013-08-13 04:21:00,82.4,79.5,29.90,SW,229,11.0,19.0,91,0.00,,,0.00,WUHU216DAVISVP2,2013-08-13 08:21:00,
2013-08-13 04:26:00,82.3,79.4,29.90,WSW,241,14.0,19.0,91,0.00,,,0.00,WUHU216DAVISVP2,2013-08-13 08:26:00,
2013-08-13 04:31:00,82.3,79.4,29.90,WSW,242,13.0,19.0,91,0.00,,,0.00,WUHU216DAVISVP2,2013-08-13 08:31:00,
2013-08-13 04:36:00,82.2,79.3,29.90,WSW,252,10.0,19.0,91,0.00,,,0.00,WUHU216DAVISVP2,2013-08-13 08:36:00,
2013-08-13 04:41:00,82.2,79.3,29.90,WSW,252,9.0,18.0,91,0.00,,,0.00,WUHU216DAVISVP2,2013-08-13 08:41:00,
2013-08-13 04:46:00,82.1,79.2,29.90,WNW,288,6.0,15.0,91,0.00,,,0.00,WUHU216DAVISVP2,2013-08-13 08:46:00,
2013-08-13 04:51:00,82.1,79.2,29.90,WSW,243,10.0,18.0,91,0.00,,,0.00,WUHU216DAVISVP2,2013-08-13 08:51:00,
2013-08-13 04:56:00,82.1,79.2,29.90,West,269,10.0,18.0,91,0.00,,,0.00,WUHU216DAVISVP2,2013-08-13 08:56:00,
2013-08-13 05:01:00,82.0,79.1,29.90,WSW,239,8.0,18.0,91,0.00,,,0.00,WUHU216DAVISVP2,2013-08-13 09:01:00,
2013-08-13 05:06:00,82.0,79.1,29.90,WSW,257,7.0,18.0,91,0.00,,,0.00,WUHU216DAVISVP2,2013-08-13 09:06:00,
2013-08-13 05:11:00,81.9,79.0,29.91,WNW,283,8.0,18.0,91,0.00,,,0.00,WUHU216DAVISVP2,2013-08-13 09:11:00,
2013-08-13 05:16:00,81.9,79.0,29.90,West,268,8.0,18.0,91,0.00,,,0.00,WUHU216DAVISVP2,2013-08-13 09:16:00,
2013-08-13 05:21:00,81.9,78.7,29.90,WSW,250,15.0,18.0,90,0.00,,,0.00,WUHU216DAVISVP2,2013-08-13 09:21:00,
2013-08-13 05:26:00,81.9,78.7,29.90,West,262,7.0,19.0,90,0.00,,,0.00,WUHU216DAVISVP2,2013-08-13 09:26:00,
2013-08-13 05:31:00,81.9,78.7,29.90,WSW,237,6.0,19.0,90,0.00,,,0.00,WUHU216DAVISVP2,2013-08-13 09:31:00,
2013-08-13 05:36:00,81.8,78.2,29.90,West,264,13.0,20.0,89,0.00,,,0.00,WUHU216DAVISVP2,2013-08-13 09:36:00,
2013-08-13 05:41:00,81.8,78.2,29.90,WSW,242,10.0,20.0,89,0.00,,,0.00,WUHU216DAVISVP2,2013-08-13 09:41:00,
2013-08-13 05:46:00,81.8,77.9,29.90,WSW,245,17.0,22.0,88,0.00,,,0.00,WUHU216DAVISVP2,2013-08-13 09:46:00,
2013-08-13 05:51:00,81.8,77.9,29.90,WSW,252,8.0,22.0,88,0.00,,,0.00,WUHU216DAVISVP2,2013-08-13 09:51:00,
2013-08-13 05:56:00,81.8,77.6,29.90,West,265,7.0,22.0,87,0.00,,,0.00,WUHU216DAVISVP2,2013-08-13 09:56:00,
2013-08-13 06:01:00,81.8,77.5,29.91,West,261,17.0,22.0,87,0.00,,,0.00,WUHU216DAVISVP2,2013-08-13 10:01:00,
2013-08-13 06:06:00,81.8,77.6,29.90,WSW,248,9.0,21.0,87,0.00,,,0.00,WUHU216DAVISVP2,2013-08-13 10:06:00,
2013-08-13 06:11:00,81.7,77.5,29.90,West,260,11.0,21.0,87,0.00,,,0.00,WUHU216DAVISVP2,2013-08-13 10:11:00,
2013-08-13 06:16:00,81.8,77.6,29.90,West,274,12.0,21.0,87,0.00,,,0.00,WUHU216DAVISVP2,2013-08-13 10:16:00,
2013-08-13 06:21:00,81.7,77.5,29.90,West,261,11.0,20.0,87,0.00,,,0.00,WUHU216DAVISVP2,2013-08-13 10:21:00,
2013-08-13 06:26:00,81.6,77.4,29.90,WSW,255,11.0,20.0,87,0.00,,,0.00,WUHU216DAVISVP2,2013-08-13 10:26:00,
2013-08-13 06:31:00,81.6,77.4,29.90,WSW,244,11.0,20.0,87,0.00,,,0.00,WUHU216DAVISVP2,2013-08-13 10:31:00,
2013-08-13 06:36:00,81.6,77.4,29.91,SW,231,6.0,18.0,87,0.00,,,0.00,WUHU216DAVISVP2,2013-08-13 10:36:00,
2013-08-13 06:41:00,81.5,77.3,29.90,SW,224,8.0,18.0,87,0.00,,,0.00,WUHU216DAVISVP2,2013-08-13 10:41:00,
2013-08-13 06:46:00,81.4,77.5,29.90,WSW,245,11.0,16.0,88,0.00,,,0.00,WUHU216DAVISVP2,2013-08-13 10:46:00,
2013-08-13 06:51:00,81.4,77.5,29.90,WSW,253,11.0,16.0,88,0.00,,,0.00,WUHU216DAVISVP2,2013-08-13 10:51:00,
2013-08-13 06:56:00,81.4,77.5,29.90,WSW,237,7.0,16.0,88,0.00,,,0.00,WUHU216DAVISVP2,2013-08-13 10:56:00,
2013-08-13 07:01:00,81.3,77.4,29.90,SW,233,9.0,16.0,88,0.00,,,0.00,WUHU216DAVISVP2,2013-08-13 11:01:00,
2013-08-13 07:06:00,81.3,77.4,29.90,SW,214,10.0,17.0,88,0.00,,,0.00,WUHU216DAVISVP2,2013-08-13 11:06:00,
2013-08-13 07:11:00,81.4,77.5,29.90,WSW,252,11.0,17.0,88,0.00,,,0.00,WUHU216DAVISVP2,2013-08-13 11:11:00,
2013-08-13 07:16:00,81.4,77.5,29.90,SW,236,12.0,17.0,88,0.00,,,0.00,WUHU216DAVISVP2,2013-08-13 11:16:00,
2013-08-13 07:21:00,81.4,77.5,29.90,SW,236,12.0,17.0,88,0.00,,,0.00,WUHU216DAVISVP2,2013-08-13 11:21:00,
2013-08-13 07:26:00,81.4,77.5,29.90,WSW,250,11.0,17.0,88,0.00,,,0.00,WUHU216DAVISVP2,2013-08-13 11:26:00,
2013-08-13 07:31:00,81.5,77.6,29.89,WSW,250,11.0,17.0,88,0.00,,,0.00,WUHU216DAVISVP2,2013-08-13 11:31:00,
2013-08-13 07:36:00,81.6,77.7,29.89,WSW,241,9.0,17.0,88,0.00,,,0.00,WUHU216DAVISVP2,2013-08-13 11:36:00,
2013-08-13 07:41:00,81.7,77.8,29.89,WSW,240,11.0,16.0,88,0.00,,,0.00,WUHU216DAVISVP2,2013-08-13 11:41:00,
2013-08-13 07:46:00,81.7,77.5,29.90,West,270,8.0,17.0,87,0.00,,,0.00,WUHU216DAVISVP2,2013-08-13 11:46:00,
2013-08-13 07:51:00,81.8,77.5,29.90,West,259,7.0,17.0,87,0.00,,,0.00,WUHU216DAVISVP2,2013-08-13 11:51:00,
2013-08-13 07:56:00,81.9,77.3,29.90,WSW,240,13.0,19.0,86,0.00,,,0.00,WUHU216DAVISVP2,2013-08-13 11:56:00,
2013-08-13 08:01:00,81.9,77.7,29.90,WSW,241,16.0,19.0,87,0.00,,,0.00,WUHU216DAVISVP2,2013-08-13 12:01:00,
2013-08-13 08:06:00,81.9,77.3,29.90,WSW,250,11.0,19.0,86,0.00,,,0.00,WUHU216DAVISVP2,2013-08-13 12:06:00,
2013-08-13 08:11:00,82.0,77.4,29.90,WSW,240,9.0,19.0,86,0.00,,,0.00,WUHU216DAVISVP2,2013-08-13 12:11:00,
2013-08-13 08:16:00,82.0,77.4,29.90,WSW,238,8.0,18.0,86,0.00,,,0.00,WUHU216DAVISVP2,2013-08-13 12:16:00,
2013-08-13 08:21:00,82.1,77.5,29.90,WSW,252,8.0,18.0,86,0.00,,,0.00,WUHU216DAVISVP2,2013-08-13 12:21:00,
2013-08-13 08:26:00,82.2,77.3,29.90,WSW,245,11.0,18.0,85,0.00,,,0.00,WUHU216DAVISVP2,2013-08-13 12:26:00,
2013-08-13 08:31:00,82.4,77.5,29.90,WSW,255,9.0,16.0,85,0.00,,,0.00,WUHU216DAVISVP2,2013-08-13 12:31:00,
2013-08-13 08:36:00,82.5,77.6,29.90,WSW,257,10.0,16.0,85,0.00,,,0.00,WUHU216DAVISVP2,2013-08-13 12:36:00,
2013-08-13 08:41:00,82.7,77.4,29.90,WSW,255,9.0,16.0,84,0.00,,,0.00,WUHU216DAVISVP2,2013-08-13 12:41:00,
2013-08-13 08:46:00,82.7,77.1,29.91,WSW,253,13.0,17.0,83,0.00,,,0.00,WUHU216DAVISVP2,2013-08-13 12:46:00,
2013-08-13 08:51:00,82.7,77.1,29.91,West,262,5.0,17.0,83,0.00,,,0.00,WUHU216DAVISVP2,2013-08-13 12:51:00,
2013-08-13 08:56:00,82.9,77.3,29.91,WSW,247,9.0,17.0,83,0.00,,,0.00,WUHU216DAVISVP2,2013-08-13 12:56:00,
2013-08-13 09:01:00,83.2,77.2,29.91,WSW,239,6.0,17.0,82,0.00,,,0.00,WUHU216DAVISVP2,2013-08-13 13:01:00,
2013-08-13 09:06:00,83.5,77.5,29.91,WSW,256,6.0,15.0,82,0.00,,,0.00,WUHU216DAVISVP2,2013-08-13 13:06:00,
2013-08-13 09:11:00,83.5,77.2,29.91,WSW,249,6.0,14.0,81,0.00,,,0.00,WUHU216DAVISVP2,2013-08-13 13:11:00,
2013-08-13 09:16:00,84.0,77.2,29.91,WSW,249,13.0,14.0,80,0.00,,,0.00,WUHU216DAVISVP2,2013-08-13 13:16:00,
2013-08-13 09:21:00,84.0,77.7,29.91,SW,223,9.0,16.0,81,0.00,,,0.00,WUHU216DAVISVP2,2013-08-13 13:21:00,
2013-08-13 09:26:00,83.8,77.1,29.91,WSW,237,11.0,18.0,80,0.00,,,0.00,WUHU216DAVISVP2,2013-08-13 13:26:00,
2013-08-13 09:31:00,83.9,77.2,29.91,WSW,256,10.0,18.0,80,0.00,,,0.00,WUHU216DAVISVP2,2013-08-13 13:31:00,
2013-08-13 09:36:00,83.6,77.3,29.91,WSW,243,11.0,19.0,81,0.00,,,0.00,WUHU216DAVISVP2,2013-08-13 13:36:00,
2013-08-13 09:41:00,83.3,77.0,29.91,WSW,237,8.0,19.0,81,0.00,,,0.00,WUHU216DAVISVP2,2013-08-13 13:41:00,
2013-08-13 09:46:00,83.1,76.8,29.91,WSW,256,11.0,19.0,81,0.00,,,0.00,WUHU216DAVISVP2,2013-08-13 13:46:00,
2013-08-13 09:51:00,82.7,76.4,29.91,SW,222,13.0,19.0,81,0.00,,,0.00,WUHU216DAVISVP2,2013-08-13 13:51:00,
2013-08-13 09:56:00,83.0,77.0,29.91,WSW,243,9.0,19.0,82,0.00,,,0.00,WUHU216DAVISVP2,2013-08-13 13:56:00,
2013-08-13 10:01:00,83.6,76.9,29.91,WSW,244,15.0,18.0,80,0.00,,,0.00,WUHU216DAVISVP2,2013-08-13 14:01:00,
2013-08-13 10:06:00,84.1,77.3,29.91,WSW,255,12.0,18.0,80,0.00,,,0.00,WUHU216DAVISVP2,2013-08-13 14:06:00,
2013-08-13 10:11:00,84.3,77.6,29.92,WSW,241,13.0,20.0,80,0.00,,,0.00,WUHU216DAVISVP2,2013-08-13 14:11:00,
2013-08-13 10:16:00,84.5,77.4,29.91,SW,226,14.0,23.0,79,0.00,,,0.00,WUHU216DAVISVP2,2013-08-13 14:16:00,
2013-08-13 10:21:00,84.7,77.2,29.91,WSW,246,15.0,23.0,78,0.00,,,0.00,WUHU216DAVISVP2,2013-08-13 14:21:00,
2013-08-13 10:26:00,84.6,77.1,29.92,WSW,252,13.0,23.0,78,0.00,,,0.00,WUHU216DAVISVP2,2013-08-13 14:26:00,
2013-08-13 10:31:00,84.8,77.0,29.92,West,264,21.0,25.0,77,0.00,,,0.00,WUHU216DAVISVP2,2013-08-13 14:31:00,
2013-08-13 10:36:00,84.6,76.6,29.92,West,276,16.0,25.0,77,0.00,,,0.00,WUHU216DAVISVP2,2013-08-13 14:36:00,
2013-08-13 10:41:00,84.7,76.9,29.92,WSW,248,13.0,25.0,77,0.00,,,0.00,WUHU216DAVISVP2,2013-08-13 14:41:00,
2013-08-13 10:46:00,84.7,76.9,29.92,WSW,255,19.0,25.0,77,0.00,,,0.00,WUHU216DAVISVP2,2013-08-13 14:46:00,
2013-08-13 10:51:00,84.8,76.6,29.92,WSW,247,12.0,22.0,76,0.00,,,0.00,WUHU216DAVISVP2,2013-08-13 14:51:00,
2013-08-13 10:56:00,85.0,76.8,29.92,WSW,241,16.0,23.0,76,0.00,,,0.00,WUHU216DAVISVP2,2013-08-13 14:56:00,
2013-08-13 11:01:00,85.0,76.8,29.92,WSW,252,19.0,23.0,76,0.00,,,0.00,WUHU216DAVISVP2,2013-08-13 15:01:00,
2013-08-13 11:06:00,85.2,77.3,29.92,West,260,14.0,23.0,77,0.00,,,0.00,WUHU216DAVISVP2,2013-08-13 15:06:00,
2013-08-13 11:11:00,85.4,77.8,29.91,SW,229,7.0,23.0,78,0.00,,,0.00,WUHU216DAVISVP2,2013-08-13 15:11:00,
2013-08-13 11:16:00,85.7,78.2,29.91,West,266,16.0,23.0,78,0.00,,,0.00,WUHU216DAVISVP2,2013-08-13 15:16:00,
2013-08-13 11:21:00,85.6,77.7,29.91,WSW,244,17.0,22.0,77,0.00,,,0.00,WUHU216DAVISVP2,2013-08-13 15:21:00,
2013-08-13 11:26:00,85.6,77.7,29.91,SW,236,10.0,26.0,77,0.00,,,0.00,WUHU216DAVISVP2,2013-08-13 15:26:00,
2013-08-13 11:31:00,85.7,77.5,29.91,SSW,200,15.0,26.0,76,0.00,,,0.00,WUHU216DAVISVP2,2013-08-13 15:31:00,
2013-08-13 11:36:00,85.9,78.0,29.91,SW,228,12.0,26.0,77,0.00,,,0.00,WUHU216DAVISVP2,2013-08-13 15:36:00,
2013-08-13 11:41:00,86.1,78.2,29.90,WSW,251,12.0,26.0,77,0.00,,,0.00,WUHU216DAVISVP2,2013-08-13 15:41:00,
2013-08-13 11:46:00,85.6,78.5,29.91,WNW,289,11.0,24.0,79,0.00,,,0.00,WUHU216DAVISVP2,2013-08-13 15:46:00,
2013-08-13 11:51:00,85.4,77.9,29.91,SW,226,20.0,26.0,78,0.00,,,0.00,WUHU216DAVISVP2,2013-08-13 15:51:00,
2013-08-13 11:56:00,85.8,77.9,29.91,SSW,204,10.0,26.0,77,0.00,,,0.00,WUHU216DAVISVP2,2013-08-13 15:56:00,
2013-08-13 12:01:00,86.0,78.1,29.91,WNW,283,13.0,26.0,77,0.00,,,0.00,WUHU216DAVISVP2,2013-08-13 16:01:00,
2013-08-13 12:06:00,86.2,78.3,29.91,WSW,245,20.0,26.0,77,0.00,,,0.00,WUHU216DAVISVP2,2013-08-13 16:06:00,
2013-08-13 12:11:00,86.3,78.6,29.90,SW,233,16.0,26.0,78,0.00,,,0.00,WUHU216DAVISVP2,2013-08-13 16:11:00,
2013-08-13 12:16:00,86.2,78.3,29.90,SW,232,15.0,26.0,77,0.00,,,0.00,WUHU216DAVISVP2,2013-08-13 16:16:00,
2013-08-13 12:21:00,86.3,78.4,29.90,WSW,250,15.0,27.0,77,0.00,,,0.00,WUHU216DAVISVP2,2013-08-13 16:21:00,
2013-08-13 12:26:00,86.5,78.6,29.90,WSW,253,15.0,27.0,77,0.00,,,0.00,WUHU216DAVISVP2,2013-08-13 16:26:00,
2013-08-13 12:31:00,86.3,78.8,29.90,West,274,17.0,27.0,78,0.00,,,0.00,WUHU216DAVISVP2,2013-08-13 16:31:00,
2013-08-13 12:36:00,86.7,78.2,29.89,WSW,248,15.0,27.0,76,0.00,,,0.00,WUHU216DAVISVP2,2013-08-13 16:36:00,
2013-08-13 12:41:00,86.6,79.1,29.89,SW,233,13.0,25.0,78,0.00,,,0.00,WUHU216DAVISVP2,2013-08-13 16:41:00,
2013-08-13 12:46:00,86.5,78.6,29.89,WSW,243,16.0,25.0,77,0.00,,,0.00,WUHU216DAVISVP2,2013-08-13 16:46:00,
2013-08-13 12:51:00,86.5,79.0,29.89,SW,236,13.0,24.0,78,0.00,,,0.00,WUHU216DAVISVP2,2013-08-13 16:51:00,
2013-08-13 12:56:00,86.6,78.7,29.89,WSW,242,16.0,24.0,77,0.00,,,0.00,WUHU216DAVISVP2,2013-08-13 16:56:00,
2013-08-13 13:01:00,87.0,79.1,29.88,West,274,14.0,22.0,77,0.00,,,0.00,WUHU216DAVISVP2,2013-08-13 17:01:00,
2013-08-13 13:06:00,86.9,78.8,29.88,West,269,13.0,23.0,77,0.00,,,0.00,WUHU216DAVISVP2,2013-08-13 17:06:00,
2013-08-13 13:12:00,87.1,79.2,29.88,WSW,245,14.0,23.0,77,0.00,,,0.00,WUHU216DAVISVP2,2013-08-13 17:12:00,
2013-08-13 13:17:00,87.1,79.6,29.87,SW,220,13.0,23.0,78,0.00,,,0.00,WUHU216DAVISVP2,2013-08-13 17:17:00,
2013-08-13 13:22:00,87.2,79.7,29.87,West,273,17.0,23.0,78,0.00,,,0.00,WUHU216DAVISVP2,2013-08-13 17:22:00,
2013-08-13 13:27:00,87.1,79.2,29.87,WSW,255,18.0,22.0,77,0.00,,,0.00,WUHU216DAVISVP2,2013-08-13 17:27:00,
2013-08-13 13:32:00,86.7,80.3,29.87,WSW,257,13.0,23.0,81,0.00,,,0.00,WUHU216DAVISVP2,2013-08-13 17:32:00,
2013-08-13 13:37:00,86.6,79.7,29.87,South,188,8.0,23.0,80,0.00,,,0.00,WUHU216DAVISVP2,2013-08-13 17:37:00,
2013-08-13 13:42:00,86.4,79.6,29.87,WSW,254,10.0,26.0,80,0.00,,,0.00,WUHU216DAVISVP2,2013-08-13 17:42:00,
2013-08-13 13:47:00,86.8,80.0,29.87,WSW,248,20.0,26.0,80,0.00,,,0.00,WUHU216DAVISVP2,2013-08-13 17:47:00,
2013-08-13 13:52:00,87.0,80.2,29.86,SW,234,17.0,26.0,80,0.00,,,0.00,WUHU216DAVISVP2,2013-08-13 17:52:00,
2013-08-13 13:57:00,87.0,80.2,29.86,SSW,206,12.0,26.0,80,0.00,,,0.00,WUHU216DAVISVP2,2013-08-13 17:57:00,
2013-08-13 14:02:00,86.8,80.0,29.86,SW,236,18.0,25.0,80,0.00,,,0.00,WUHU216DAVISVP2,2013-08-13 18:02:00,
2013-08-13 14:07:00,86.6,80.1,29.86,SSW,199,8.0,24.0,81,0.00,,,0.00,WUHU216DAVISVP2,2013-08-13 18:07:00,
2013-08-13 14:12:00,87.1,80.2,29.85,WSW,256,18.0,24.0,80,0.00,,,0.00,WUHU216DAVISVP2,2013-08-13 18:12:00,
2013-08-13 14:17:00,86.8,80.8,29.85,SW,236,15.0,24.0,82,0.00,,,0.00,WUHU216DAVISVP2,2013-08-13 18:17:00,
2013-08-13 14:22:00,87.1,80.7,29.85,WSW,238,20.0,24.0,81,0.00,,,0.00,WUHU216DAVISVP2,2013-08-13 18:22:00,
2013-08-13 14:27:00,87.2,81.1,29.85,WSW,245,16.0,23.0,82,0.00,,,0.00,WUHU216DAVISVP2,2013-08-13 18:27:00,
2013-08-13 14:32:00,86.8,80.4,29.85,West,269,17.0,23.0,81,0.00,,,0.00,WUHU216DAVISVP2,2013-08-13 18:32:00,
2013-08-13 14:37:00,86.7,80.7,29.84,WSW,240,16.0,23.0,82,0.00,,,0.00,WUHU216DAVISVP2,2013-08-13 18:37:00,
2013-08-13 14:42:00,86.4,80.0,29.84,SW,236,17.0,24.0,81,0.00,,,0.00,WUHU216DAVISVP2,2013-08-13 18:42:00,
2013-08-13 14:47:00,86.7,80.7,29.84,WSW,251,21.0,24.0,82,0.00,,,0.00,WUHU216DAVISVP2,2013-08-13 18:47:00,
2013-08-13 14:52:00,86.7,80.3,29.84,SW,231,19.0,24.0,81,0.00,,,0.00,WUHU216DAVISVP2,2013-08-13 18:52:00,
2013-08-13 14:57:00,86.9,80.5,29.84,SW,232,19.0,24.0,81,0.00,,,0.00,WUHU216DAVISVP2,2013-08-13 18:57:00,
2013-08-13 15:02:00,86.9,80.8,29.83,SW,223,11.0,24.0,82,0.00,,,0.00,WUHU216DAVISVP2,2013-08-13 19:02:00,
2013-08-13 15:07:00,87.4,80.6,29.83,SW,222,18.0,24.0,80,0.00,,,0.00,WUHU216DAVISVP2,2013-08-13 19:07:00,
2013-08-13 15:12:00,87.2,80.3,29.83,SW,236,21.0,25.0,80,0.00,,,0.00,WUHU216DAVISVP2,2013-08-13 19:12:00,
2013-08-13 15:17:00,87.3,80.9,29.83,SW,236,17.0,25.0,81,0.00,,,0.00,WUHU216DAVISVP2,2013-08-13 19:17:00,
2013-08-13 15:22:00,87.1,80.7,29.83,SW,224,18.0,27.0,81,0.00,,,0.00,WUHU216DAVISVP2,2013-08-13 19:22:00,
2013-08-13 15:27:00,86.8,80.4,29.83,WSW,250,16.0,27.0,81,0.00,,,0.00,WUHU216DAVISVP2,2013-08-13 19:27:00,
2013-08-13 15:32:00,87.2,80.8,29.83,SW,214,13.0,27.0,81,0.00,,,0.00,WUHU216DAVISVP2,2013-08-13 19:32:00,
2013-08-13 15:37:00,87.3,80.4,29.82,SW,230,19.0,27.0,80,0.00,,,0.00,WUHU216DAVISVP2,2013-08-13 19:37:00,
2013-08-13 15:42:00,86.9,80.1,29.82,West,275,16.0,26.0,80,0.00,,,0.00,WUHU216DAVISVP2,2013-08-13 19:42:00,
2013-08-13 15:47:00,86.7,80.3,29.82,West,271,9.0,26.0,81,0.00,,,0.00,WUHU216DAVISVP2,2013-08-13 19:47:00,
2013-08-13 15:52:00,87.0,80.6,29.83,SW,236,18.0,26.0,81,0.00,,,0.00,WUHU216DAVISVP2,2013-08-13 19:52:00,
2013-08-13 15:57:00,86.7,79.9,29.82,West,260,15.0,26.0,80,0.00,,,0.00,WUHU216DAVISVP2,2013-08-13 19:57:00,
2013-08-13 16:02:00,86.9,80.5,29.82,SW,232,12.0,26.0,81,0.00,,,0.00,WUHU216DAVISVP2,2013-08-13 20:02:00,
2013-08-13 16:07:00,87.2,80.8,29.82,WSW,252,21.0,24.0,81,0.00,,,0.00,WUHU216DAVISVP2,2013-08-13 20:07:00,
2013-08-13 16:12:00,87.2,80.4,29.81,West,266,15.0,24.0,80,0.00,,,0.00,WUHU216DAVISVP2,2013-08-13 20:12:00,
2013-08-13 16:17:00,87.0,79.7,29.82,WSW,243,20.0,25.0,79,0.00,,,0.00,WUHU216DAVISVP2,2013-08-13 20:17:00,
2013-08-13 16:22:00,86.8,79.5,29.81,West,264,12.0,25.0,79,0.00,,,0.00,WUHU216DAVISVP2,2013-08-13 20:22:00,
2013-08-13 16:27:00,87.0,80.2,29.81,West,271,11.0,26.0,80,0.00,,,0.00,WUHU216DAVISVP2,2013-08-13 20:27:00,
2013-08-13 16:32:00,87.0,79.9,29.81,SW,236,18.0,26.0,79,0.00,,,0.00,WUHU216DAVISVP2,2013-08-13 20:32:00,
2013-08-13 16:37:00,87.0,80.2,29.81,WSW,240,17.0,26.0,80,0.00,,,0.00,WUHU216DAVISVP2,2013-08-13 20:37:00,
2013-08-13 16:42:00,87.0,80.2,29.80,West,260,13.0,26.0,80,0.00,,,0.00,WUHU216DAVISVP2,2013-08-13 20:42:00,
2013-08-13 16:47:00,86.7,79.9,29.81,WSW,256,15.0,26.0,80,0.00,,,0.00,WUHU216DAVISVP2,2013-08-13 20:47:00,
2013-08-13 16:52:00,86.7,80.3,29.81,WSW,257,18.0,26.0,81,0.00,,,0.00,WUHU216DAVISVP2,2013-08-13 20:52:00,
2013-08-13 16:57:00,86.9,80.0,29.81,WSW,243,11.0,27.0,80,0.00,,,0.00,WUHU216DAVISVP2,2013-08-13 20:57:00,
2013-08-13 17:02:00,86.8,79.5,29.80,WSW,249,15.0,27.0,79,0.00,,,0.00,WUHU216DAVISVP2,2013-08-13 21:02:00,
2013-08-13 17:07:00,86.8,80.3,29.81,West,277,17.0,27.0,81,0.00,,,0.00,WUHU216DAVISVP2,2013-08-13 21:07:00,
2013-08-13 17:12:00,86.9,80.1,29.80,WSW,248,15.0,26.0,80,0.00,,,0.00,WUHU216DAVISVP2,2013-08-13 21:12:00,
2013-08-13 17:17:00,86.9,79.8,29.81,WSW,248,16.0,28.0,79,0.00,,,0.00,WUHU216DAVISVP2,2013-08-13 21:17:00,
2013-08-13 17:22:00,86.8,80.4,29.80,WSW,240,20.0,28.0,81,0.00,,,0.00,WUHU216DAVISVP2,2013-08-13 21:22:00,
2013-08-13 17:27:00,86.8,80.0,29.81,West,264,16.0,28.0,80,0.00,,,0.00,WUHU216DAVISVP2,2013-08-13 21:27:00,
2013-08-13 17:32:00,86.6,80.2,29.81,SW,236,9.0,28.0,81,0.00,,,0.00,WUHU216DAVISVP2,2013-08-13 21:32:00,
2013-08-13 17:37:00,86.5,80.5,29.81,West,259,15.0,27.0,82,0.00,,,0.00,WUHU216DAVISVP2,2013-08-13 21:37:00,
2013-08-13 17:42:00,86.4,80.4,29.81,WSW,242,21.0,27.0,82,0.00,,,0.00,WUHU216DAVISVP2,2013-08-13 21:42:00,
2013-08-13 17:47:00,86.3,80.3,29.81,SW,236,22.0,29.0,82,0.00,,,0.00,WUHU216DAVISVP2,2013-08-13 21:47:00,
2013-08-13 17:52:00,86.3,80.6,29.81,SW,226,15.0,29.0,83,0.00,,,0.00,WUHU216DAVISVP2,2013-08-13 21:52:00,
2013-08-13 17:57:00,86.3,80.3,29.81,WSW,244,18.0,29.0,82,0.00,,,0.00,WUHU216DAVISVP2,2013-08-13 21:57:00,
2013-08-13 18:02:00,86.1,80.1,29.81,WSW,255,14.0,27.0,82,0.00,,,0.00,WUHU216DAVISVP2,2013-08-13 22:02:00,
2013-08-13 18:07:00,85.9,80.2,29.81,West,271,13.0,27.0,83,0.00,,,0.00,WUHU216DAVISVP2,2013-08-13 22:07:00,
2013-08-13 18:12:00,85.7,80.4,29.80,SW,224,18.0,30.0,84,0.00,,,0.00,WUHU216DAVISVP2,2013-08-13 22:12:00,
2013-08-13 18:17:00,85.7,80.4,29.80,WSW,247,16.0,30.0,84,0.00,,,0.00,WUHU216DAVISVP2,2013-08-13 22:17:00,
2013-08-13 18:22:00,85.5,80.5,29.80,WSW,249,11.0,30.0,85,0.00,,,0.00,WUHU216DAVISVP2,2013-08-13 22:22:00,
2013-08-13 18:27:00,85.1,80.1,29.80,West,266,22.0,30.0,85,0.00,,,0.00,WUHU216DAVISVP2,2013-08-13 22:27:00,
2013-08-13 18:32:00,84.9,80.3,29.79,WSW,243,11.0,25.0,86,0.00,,,0.00,WUHU216DAVISVP2,2013-08-13 22:32:00,
2013-08-13 18:37:00,84.7,80.0,29.79,SW,233,11.0,25.0,86,0.00,,,0.00,WUHU216DAVISVP2,2013-08-13 22:37:00,
2013-08-13 18:42:00,84.6,80.0,29.80,WSW,239,16.0,25.0,86,0.00,,,0.00,WUHU216DAVISVP2,2013-08-13 22:42:00,
2013-08-13 18:47:00,84.4,79.8,29.80,SW,223,23.0,28.0,86,0.00,,,0.00,WUHU216DAVISVP2,2013-08-13 22:47:00,
2013-08-13 18:52:00,84.4,80.1,29.80,WSW,250,18.0,28.0,87,0.00,,,0.00,WUHU216DAVISVP2,2013-08-13 22:52:00,
2013-08-13 18:57:00,84.4,79.8,29.80,WSW,238,12.0,28.0,86,0.00,,,0.00,WUHU216DAVISVP2,2013-08-13 22:57:00,
2013-08-13 19:02:00,84.5,79.8,29.80,WSW,258,17.0,28.0,86,0.00,,,0.00,WUHU216DAVISVP2,2013-08-13 23:02:00,
2013-08-13 19:07:00,84.4,80.1,29.80,WSW,245,10.0,27.0,87,0.00,,,0.00,WUHU216DAVISVP2,2013-08-13 23:07:00,
2013-08-13 19:12:00,84.4,79.8,29.80,West,261,15.0,27.0,86,0.00,,,0.00,WUHU216DAVISVP2,2013-08-13 23:12:00,
2013-08-13 19:17:00,84.5,80.2,29.80,SW,236,12.0,27.0,87,0.00,,,0.00,WUHU216DAVISVP2,2013-08-13 23:17:00,
2013-08-13 19:22:00,84.5,79.9,29.81,West,268,19.0,27.0,86,0.00,,,0.00,WUHU216DAVISVP2,2013-08-13 23:22:00,
2013-08-13 19:27:00,84.5,79.9,29.80,WSW,249,14.0,27.0,86,0.00,,,0.00,WUHU216DAVISVP2,2013-08-13 23:27:00,
2013-08-13 19:32:00,84.4,79.5,29.80,West,261,18.0,27.0,85,0.00,,,0.00,WUHU216DAVISVP2,2013-08-13 23:32:00,
2013-08-13 19:37:00,84.4,79.8,29.80,SW,219,16.0,27.0,86,0.00,,,0.00,WUHU216DAVISVP2,2013-08-13 23:37:00,
2013-08-13 19:42:00,84.3,79.7,29.80,West,259,16.0,27.0,86,0.00,,,0.00,WUHU216DAVISVP2,2013-08-13 23:42:00,
2013-08-13 19:47:00,84.3,79.7,29.80,WSW,238,18.0,27.0,86,0.00,,,0.00,WUHU216DAVISVP2,2013-08-13 23:47:00,
2013-08-13 19:52:00,84.3,79.7,29.80,WSW,253,16.0,27.0,86,0.00,,,0.00,WUHU216DAVISVP2,2013-08-13 23:52:00,
2013-08-13 19:57:00,84.1,79.8,29.81,WSW,250,22.0,26.0,87,0.00,,,0.00,WUHU216DAVISVP2,2013-08-13 23:57:00,
2013-08-13 20:02:00,84.1,79.5,29.81,WSW,253,16.0,26.0,86,0.00,,,0.00,WUHU216DAVISVP2,2013-08-14 00:02:00,
2013-08-13 20:07:00,84.0,79.4,29.80,WSW,254,14.0,26.0,86,0.00,,,0.00,WUHU216DAVISVP2,2013-08-14 00:07:00,
2013-08-13 20:12:00,83.9,79.3,29.81,West,266,8.0,26.0,86,0.00,,,0.00,WUHU216DAVISVP2,2013-08-14 00:12:00,
2013-08-13 20:17:00,83.8,79.2,29.81,WSW,251,13.0,25.0,86,0.00,,,0.00,WUHU216DAVISVP2,2013-08-14 00:17:00,
2013-08-13 20:22:00,83.8,79.2,29.81,West,266,12.0,21.0,86,0.00,,,0.00,WUHU216DAVISVP2,2013-08-14 00:22:00,
2013-08-13 20:27:00,83.7,79.1,29.82,West,259,16.0,21.0,86,0.00,,,0.00,WUHU216DAVISVP2,2013-08-14 00:27:00,
2013-08-13 20:32:00,83.7,79.4,29.82,WSW,256,17.0,21.0,87,0.00,,,0.00,WUHU216DAVISVP2,2013-08-14 00:32:00,
2013-08-13 20:37:00,83.7,79.4,29.82,West,277,15.0,21.0,87,0.00,,,0.00,WUHU216DAVISVP2,2013-08-14 00:37:00,
2013-08-13 20:42:00,83.7,79.5,29.82,SW,224,12.0,21.0,87,0.00,,,0.00,WUHU216DAVISVP2,2013-08-14 00:42:00,
2013-08-13 20:47:00,83.6,79.4,29.82,WSW,252,11.0,20.0,87,0.00,,,0.00,WUHU216DAVISVP2,2013-08-14 00:47:00,
2013-08-13 20:52:00,83.6,79.4,29.82,WSW,248,12.0,20.0,87,0.00,,,0.00,WUHU216DAVISVP2,2013-08-14 00:52:00,
2013-08-13 20:57:00,83.6,79.4,29.82,SW,224,9.0,22.0,87,0.00,,,0.00,WUHU216DAVISVP2,2013-08-14 00:57:00,
2013-08-13 21:02:00,83.5,79.3,29.82,WNW,296,10.0,22.0,87,0.00,,,0.00,WUHU216DAVISVP2,2013-08-14 01:02:00,
2013-08-13 21:07:00,83.5,79.3,29.82,WSW,245,15.0,24.0,87,0.00,,,0.00,WUHU216DAVISVP2,2013-08-14 01:07:00,
2013-08-13 21:12:00,83.5,79.3,29.82,WSW,251,10.0,24.0,87,0.00,,,0.00,WUHU216DAVISVP2,2013-08-14 01:12:00,
2013-08-13 21:17:00,83.5,79.3,29.82,WSW,257,11.0,24.0,87,0.00,,,0.00,WUHU216DAVISVP2,2013-08-14 01:17:00,
2013-08-13 21:22:00,83.5,79.2,29.82,West,260,18.0,24.0,87,0.00,,,0.00,WUHU216DAVISVP2,2013-08-14 01:22:00,
2013-08-13 21:27:00,83.5,79.2,29.83,WSW,242,17.0,21.0,87,0.00,,,0.00,WUHU216DAVISVP2,2013-08-14 01:27:00,
2013-08-13 21:32:00,83.5,79.3,29.83,SW,229,10.0,21.0,87,0.00,,,0.00,WUHU216DAVISVP2,2013-08-14 01:32:00,
2013-08-13 21:37:00,83.4,79.2,29.83,West,266,17.0,27.0,87,0.00,,,0.00,WUHU216DAVISVP2,2013-08-14 01:37:00,
2013-08-13 21:42:00,83.5,78.9,29.83,West,274,9.0,27.0,86,0.00,,,0.00,WUHU216DAVISVP2,2013-08-14 01:42:00,
2013-08-13 21:47:00,83.5,78.9,29.83,West,268,20.0,27.0,86,0.00,,,0.00,WUHU216DAVISVP2,2013-08-14 01:47:00,
2013-08-13 21:52:00,83.5,78.9,29.84,West,267,9.0,27.0,86,0.00,,,0.00,WUHU216DAVISVP2,2013-08-14 01:52:00,
2013-08-13 21:57:00,83.4,78.8,29.84,WSW,255,10.0,24.0,86,0.00,,,0.00,WUHU216DAVISVP2,2013-08-14 01:57:00,
2013-08-13 22:02:00,83.4,79.2,29.84,WSW,256,14.0,24.0,87,0.00,,,0.00,WUHU216DAVISVP2,2013-08-14 02:02:00,
2013-08-13 22:07:00,83.4,79.2,29.83,WSW,257,12.0,21.0,87,0.00,,,0.00,WUHU216DAVISVP2,2013-08-14 02:07:00,
2013-08-13 22:12:00,83.3,78.7,29.83,WSW,249,12.0,21.0,86,0.00,,,0.00,WUHU216DAVISVP2,2013-08-14 02:12:00,
2013-08-13 22:17:00,83.3,78.7,29.83,WSW,249,7.0,21.0,86,0.00,,,0.00,WUHU216DAVISVP2,2013-08-14 02:17:00,
2013-08-13 22:22:00,83.4,78.8,29.83,WSW,244,20.0,21.0,86,0.00,,,0.00,WUHU216DAVISVP2,2013-08-14 02:22:00,
2013-08-13 22:27:00,83.4,78.8,29.83,WSW,255,11.0,22.0,86,0.00,,,0.00,WUHU216DAVISVP2,2013-08-14 02:27:00,
2013-08-13 22:32:00,83.4,78.8,29.83,WSW,238,13.0,22.0,86,0.00,,,0.00,WUHU216DAVISVP2,2013-08-14 02:32:00,
2013-08-13 22:37:00,83.4,78.8,29.83,SW,231,14.0,22.0,86,0.00,,,0.00,WUHU216DAVISVP2,2013-08-14 02:37:00,
2013-08-13 22:42:00,83.4,78.8,29.83,West,259,8.0,22.0,86,0.00,,,0.00,WUHU216DAVISVP2,2013-08-14 02:42:00,
2013-08-13 22:47:00,83.3,78.7,29.83,West,259,11.0,21.0,86,0.00,,,0.00,WUHU216DAVISVP2,2013-08-14 02:47:00,
2013-08-13 22:52:00,83.4,78.8,29.83,SW,223,15.0,21.0,86,0.00,,,0.00,WUHU216DAVISVP2,2013-08-14 02:52:00,
2013-08-13 22:57:00,83.4,78.8,29.83,WSW,255,18.0,22.0,86,0.00,,,0.00,WUHU216DAVISVP2,2013-08-14 02:57:00,
2013-08-13 23:02:00,83.4,78.5,29.82,West,277,11.0,22.0,85,0.00,,,0.00,WUHU216DAVISVP2,2013-08-14 03:02:00,
2013-08-13 23:07:00,83.4,78.5,29.82,SW,231,14.0,22.0,85,0.00,,,0.00,WUHU216DAVISVP2,2013-08-14 03:07:00,
2013-08-13 23:12:00,83.5,78.6,29.82,WSW,245,15.0,22.0,85,0.00,,,0.00,WUHU216DAVISVP2,2013-08-14 03:12:00,
2013-08-13 23:17:00,83.5,78.9,29.82,WSW,243,11.0,22.0,86,0.00,,,0.00,WUHU216DAVISVP2,2013-08-14 03:17:00,
2013-08-13 23:22:00,83.5,78.9,29.82,SW,224,15.0,22.0,86,0.00,,,0.00,WUHU216DAVISVP2,2013-08-14 03:22:00,
2013-08-13 23:27:00,83.6,79.0,29.82,West,262,10.0,26.0,86,0.00,,,0.00,WUHU216DAVISVP2,2013-08-14 03:27:00,
2013-08-13 23:32:00,83.6,79.4,29.83,WSW,243,17.0,26.0,87,0.00,,,0.00,WUHU216DAVISVP2,2013-08-14 03:32:00,
2013-08-13 23:37:00,83.6,79.4,29.82,WSW,254,20.0,26.0,87,0.00,,,0.00,WUHU216DAVISVP2,2013-08-14 03:37:00,
2013-08-13 23:42:00,83.5,79.3,29.82,West,262,12.0,26.0,87,0.00,,,0.00,WUHU216DAVISVP2,2013-08-14 03:42:00,
2013-08-13 23:47:00,83.5,79.3,29.82,West,265,15.0,25.0,87,0.00,,,0.00,WUHU216DAVISVP2,2013-08-14 03:47:00,
2013-08-13 23:52:00,83.5,79.3,29.81,WSW,246,15.0,25.0,87,0.00,,,0.00,WUHU216DAVISVP2,2013-08-14 03:52:00,
2013-08-13 23:57:00,83.5,79.3,29.82,WNW,292,13.0,25.0,87,0.00,,,0.00,WUHU216DAVISVP2,2013-08-14 03:57:00,